Regional Weather Roundup
Issued by NWS

Home | Current Version | Previous Version | Text Only | Print | Product List | Glossary On
Versions: 1 2 3 4 5 6 7 8 9 10 11 12 13 14 15 16 17 18 19 20 21 22 23 24 25 26 27 28 29 30 31 32 33 34 35 36 37 38 39 40 41 42 43 44 45 46 47 48 49 50
000
ASUS43 KFSD 301910
RWRSD

WEATHER ROUNDUP FOR SOUTH DAKOTA
NATIONAL WEATHER SERVICE SIOUX FALLS SD
200 PM CDT SUN AUG 30 2015

NOTE: "FAIR" INDICATES FEW OR NO CLOUDS BELOW 12,000 FEET WITH NO
SIGNIFICANT WEATHER AND/OR OBSTRUCTIONS TO VISIBILITY.


SDZ001>005-009-010-012>017-302000-
NORTHWEST AND NORTH CENTRAL SOUTH DAKOTA

CITY           SKY/WX    TMP DP  RH WIND       PRES   REMARKS
BUFFALO          N/A     93  46  19 NW5       29.70F
FAITH            N/A     91  52  26 S15       29.74F
MOBRIDGE       PTSUNNY   89  65  44 SE12      29.69F
$$

SDZ012>016-024>037-041>051-057-063-072>074-302000-
SOUTHWEST AND SOUTH CENTRAL SOUTH DAKOTA

CITY           SKY/WX    TMP DP  RH WIND       PRES   REMARKS
RAPID CTY ARPT SUNNY     94  60  32 VRB7      29.79F
PIERRE         MOSUNNY   97  52  21 S20G25    29.74F HAZE
CUSTER         SUNNY     88  39  17 W9G18     30.00F
ELLSWORTH AFB  SUNNY     92  57  31 VRB3      29.79F
PHILIP         PTSUNNY   95  57  27 S13G22    29.74F
PINE RIDGE     MOSUNNY   94  50  22 S15       29.86F
WINNER         FAIR      93  53  25 S23G33    29.83F
$$

SDZ004>011-016>023-039-040-302000-
NORTHEAST SOUTH DAKOTA

CITY           SKY/WX    TMP DP  RH WIND       PRES   REMARKS
ABERDEEN       SUNNY     83  68  60 S17       29.80F
WATERTOWN      SUNNY     79  66  64 S14       29.89S
BROOKINGS      MOSUNNY   75  66  73 S13       29.94F
SISSETON         N/A     88  67  49 S13       29.81F
$$

SDZ017-020-022-023-036>040-048>070-302000-
SOUTHEAST SOUTH DAKOTA

CITY           SKY/WX    TMP DP  RH WIND       PRES   REMARKS
SIOUX FALLS    SUNNY     74  64  71 S12       29.96F
HURON          SUNNY     82  67  60 S13G21    29.84F
CHAMBERLAIN    SUNNY     87  62  43 S14G21    29.83F
MITCHELL       SUNNY     83  69  62 S17       29.88F
YANKTON        SUNNY     79  68  69 SE15      29.93F
$$

ABBREVIATIONS USED IN REMARKS
   TC - TEMPERATURE IN CELSIUS
  WCI - WIND CHILL INDEX
   HX - HEAT INDEX
  VSB - VISIBILITY




USA.gov is the U.S. government's official web portal to all federal, state and local government web resources and services.